N2ADK Weather Reports


time (UTC)temp
C
wind
direction
speed
KPH
gust
KPH
rain 1hr
cm
rain 24hr
cm
rain mn
cm
humidity
%
barometer
mb
20260504202518 21 0 0.0 0.0 0.00 0.03 0.00 45 1004.9
20260504202017 21 0 0.0 0.0 0.00 0.03 0.00 41 1004.9
20260504201539 22 0 0.0 0.0 0.00 0.03 0.00 42 1005.0
20260504201017 22 0 0.0 0.0 0.00 0.03 0.00 46 1005.1
20260504200517 22 0 0.0 0.0 0.00 0.03 0.00 43 1005.2
20260504200029 22 0 0.0 0.0 0.00 0.03 0.00 47 1005.1
20260504195517 21 0 0.0 0.0 0.00 0.03 0.00 49 1005.2
20260504195017 21 0 0.0 0.0 0.00 0.03 0.00 48 1005.3
20260504194532 22 0 0.0 0.0 0.00 0.03 0.00 44 1005.3
20260504194014 22 0 0.0 0.0 0.00 0.03 0.00 43 1005.3
20260504193519 22 0 0.0 0.0 0.00 0.03 0.00 47 1005.3
20260504193032 22 0 0.0 0.0 0.00 0.03 0.00 49 1005.5
20260504192517 22 0 0.0 0.0 0.00 0.03 0.00 45 1005.6
20260504192017 22 0 0.0 0.0 0.00 0.03 0.00 47 1005.6
20260504191531 21 0 0.0 0.0 0.00 0.03 0.00 44 1005.6
20260504191019 21 0 0.0 0.0 0.00 0.03 0.00 48 1005.9
20260504190517 21 0 0.0 0.0 0.00 0.03 0.00 44 1005.9
20260504190031 21 0 0.0 0.0 0.00 0.03 0.00 43 1005.9
20260504185517 22 0 0.0 0.0 0.00 0.03 0.00 48 1006.0
20260504185018 22 0 0.0 0.0 0.00 0.03 0.00 45 1005.9
20260504184556 22 0 0.0 0.0 0.00 0.03 0.00 48 1006.0
20260504184019 22 0 0.0 0.0 0.00 0.03 0.00 48 1005.9
20260504183517 21 0 0.0 0.0 0.00 0.03 0.00 47 1005.9
20260504183033 21 0 0.0 0.0 0.00 0.03 0.00 47 1006.0
20260504182518 20 0 0.0 0.0 0.00 0.03 0.00 47 1006.1
20260504182015 21 0 0.0 0.0 0.00 0.03 0.00 49 1006.1
20260504181530 20 0 0.0 0.0 0.00 0.03 0.00 46 1006.1
20260504181020 20 0 0.0 0.0 0.00 0.03 0.00 48 1006.1
20260504180518 20 0 0.0 0.0 0.00 0.03 0.00 46 1006.1
20260504180032 21 0 0.0 0.0 0.00 0.03 0.00 51 1006.1
20260504175517 21 0 0.0 0.0 0.00 0.03 0.00 49 1006.1
20260504175017 21 0 0.0 0.0 0.00 0.03 0.00 46 1006.1
20260504174530 20 0 0.0 0.0 0.00 0.03 0.00 50 1006.1
20260504174017 19 0 0.0 0.0 0.00 0.03 0.00 52 1006.1
20260504173516 20 0 0.0 0.0 0.00 0.03 0.00 47 1006.2
20260504173036 20 0 0.0 0.0 0.00 0.03 0.00 49 1006.2
20260504172517 20 0 0.0 0.0 0.00 0.03 0.00 51 1006.1
20260504172018 20 0 0.0 0.0 0.00 0.03 0.00 52 1006.3
20260504171535 20 0 0.0 0.0 0.00 0.03 0.00 49 1006.2
20260504171024 20 0 0.0 0.0 0.00 0.03 0.00 49 1006.2
20260504170517 20 0 0.0 0.0 0.00 0.03 0.00 51 1006.4
20260504151017 17 0 0.0 0.0 0.00 0.03 0.00 53 1007.5
20260504150515 16 0 0.0 0.0 0.00 0.03 0.00 52 1007.6
20260504141017 15 0 0.0 0.0 0.00 0.03 0.00 55 1007.8
20260504140517 15 0 0.0 0.0 0.00 0.03 0.00 58 1007.8
20260504130521 12 0 0.0 0.0 0.00 0.03 0.00 62 1008.4
20260504110518 8 0 0.0 0.0 0.00 0.03 0.00 71 1008.9
20260504100517 7 0 0.0 0.0 0.00 0.03 0.00 80 1008.8
20260504081535 5 0 0.0 0.0 0.00 0.03 0.00 91 1008.9
20260504081017 5 0 0.0 0.0 0.00 0.03 0.00 91 1008.9
20260504080518 5 0 0.0 0.0 0.00 0.03 0.00 91 1008.9
20260504050521 7 0 0.0 0.0 0.00 0.03 0.00 92 1009.2
20260504045517 7 0 0.0 0.0 0.00 0.03 0.00 92 1009.3
20260504045017 7 0 0.0 0.0 0.00 0.03 0.00 92 1009.4
20260504044535 7 0 0.0 0.0 0.00 0.03 0.00 92 1009.4
20260504044017 7 0 0.0 0.0 0.00 0.03 0.00 92 1009.4
20260504043517 7 0 0.0 0.0 0.00 0.03 0.00 92 1009.4
20260504043035 7 0 0.0 0.0 0.00 0.03 0.00 92 1009.3
20260504042516 7 0 0.0 0.0 0.00 0.03 0.00 92 1009.4
20260504042016 7 0 0.0 0.0 0.00 0.03 0.00 92 1009.3
20260504041542 7 0 0.0 0.0 0.00 0.03 0.00 92 1009.6
20260504041019 7 0 0.0 0.0 0.00 0.03 0.00 92 1009.7
20260504040517 7 0 0.0 0.0 0.00 0.03 0.00 92 1009.7
20260504040040 7 0 0.0 0.0 0.00 0.03 0.00 91 1009.8
20260504035517 7 0 0.0 0.0 0.00 0.03 0.03 91 1009.8
20260504035018 7 0 0.0 0.0 0.00 0.03 0.03 91 1009.8
20260504034539 7 0 0.0 0.0 0.00 0.03 0.03 91 1009.7
20260504034017 7 0 0.0 0.0 0.00 0.03 0.03 90 1009.6
20260504033517 7 0 0.0 0.0 0.00 0.03 0.03 90 1009.7
20260504033033 7 0 0.0 0.0 0.00 0.03 0.03 90 1009.8
20260504032518 7 0 0.0 0.0 0.03 0.03 0.03 89 1009.8
20260504032018 7 0 0.0 0.0 0.03 0.03 0.03 89 1009.9
20260504031536 8 0 0.0 0.0 0.03 0.03 0.03 89 1010.1
20260504031016 8 0 0.0 0.0 0.03 0.03 0.03 88 1010.1
20260504030516 8 0 0.0 0.0 0.03 0.03 0.03 88 1010.3
20260504030035 8 0 0.0 0.0 0.03 0.03 0.03 87 1010.5
20260504025516 8 0 0.0 0.0 0.03 0.03 0.03 87 1010.7
20260504025018 8 0 0.0 0.0 0.03 0.03 0.03 86 1010.6
20260504024539 8 0 0.0 0.0 0.03 0.03 0.03 85 1010.2
20260504024017 8 0 0.0 0.0 0.03 0.03 0.03 85 1010.3
20260504023517 8 0 0.0 0.0 0.03 0.03 0.03 84 1010.5
20260504023031 8 0 0.0 0.0 0.03 0.03 0.03 82 1010.8
20260504022519 8 0 0.0 0.0 0.00 0.00 0.00 82 1010.9
20260504022017 8 0 0.0 0.0 0.00 0.00 0.00 82 1010.9
20260504021539 8 0 0.0 0.0 0.00 0.00 0.00 81 1010.9
20260504021017 8 0 0.0 0.0 0.00 0.00 0.00 81 1010.9
20260504020517 9 0 0.0 0.0 0.00 0.00 0.00 78 1010.9
20260504020038 9 0 0.0 0.0 0.00 0.00 0.00 76 1010.7
20260504015517 9 0 0.0 0.0 0.00 0.00 0.00 76 1010.6
20260504015017 9 0 0.0 0.0 0.00 0.00 0.00 78 1010.7
20260504014535 9 0 0.0 0.0 0.00 0.00 0.00 78 1010.7
20260504014019 9 0 0.0 0.0 0.00 0.00 0.00 76 1010.7
20260504013516 9 0 0.0 0.0 0.00 0.00 0.00 74 1010.4
20260504013047 9 0 0.0 0.0 0.00 0.00 0.00 74 1010.4
20260504012517 9 0 0.0 0.0 0.00 0.00 0.00 73 1010.3
20260504012016 10 0 0.0 0.0 0.00 0.00 0.00 72 1010.3
20260504011536 10 0 0.0 0.0 0.00 0.00 0.00 71 1010.2
20260504011018 10 0 0.0 0.0 0.00 0.00 0.00 69 1010.1
20260504010517 10 0 0.0 0.0 0.00 0.00 0.00 70 1009.8
20260504010040 10 0 0.0 0.0 0.00 0.00 0.00 67 1009.8
20260504005517 10 0 0.0 0.0 0.00 0.03 0.00 67 1009.9
20260504005018 10 0 0.0 0.0 0.00 0.03 0.00 66 1010.0
20260504004534 10 0 0.0 0.0 0.00 0.03 0.00 66 1009.8
20260504004016 10 0 0.0 0.0 0.00 0.03 0.00 66 1009.8
20260504003515 10 0 0.0 0.0 0.00 0.03 0.00 64 1010.0
20260504003032 11 0 0.0 0.0 0.00 0.03 0.00 62 1010.0
20260504002516 11 0 0.0 0.0 0.00 0.03 0.00 61 1010.0
20260504002017 11 0 0.0 0.0 0.00 0.03 0.00 55 1010.0
20260504001537 11 0 0.0 0.0 0.00 0.03 0.00 59 1010.0
20260504001017 11 0 0.0 0.0 0.00 0.03 0.00 56 1010.1
20260504000522 11 0 0.0 0.0 0.00 0.03 0.00 54 1010.1
20260504000033 11 0 0.0 0.0 0.00 0.03 0.00 55 1010.1
20260503235517 11 0 0.0 0.0 0.00 0.03 0.00 54 1010.1
20260503235018 11 0 0.0 0.0 0.00 0.03 0.00 58 1010.1
20260503234534 10 0 0.0 0.0 0.00 0.03 0.00 61 1010.3
20260503234014 11 0 0.0 0.0 0.00 0.03 0.00 64 1010.1
20260503233518 11 0 0.0 0.0 0.00 0.03 0.00 60 1009.9
20260503233032 11 0 0.0 0.0 0.00 0.03 0.00 55 1009.7
20260503232517 11 0 0.0 0.0 0.00 0.03 0.00 56 1009.6
20260503232017 11 0 0.0 0.0 0.00 0.03 0.00 54 1009.5
20260503231534 11 0 0.0 0.0 0.00 0.03 0.00 52 1009.5
20260503231018 12 0 0.0 0.0 0.00 0.03 0.00 50 1009.4
20260503230517 12 0 0.0 0.0 0.00 0.03 0.00 50 1009.5
20260503230040 12 0 0.0 0.0 0.00 0.03 0.00 52 1009.4
20260503225517 12 0 0.0 0.0 0.00 0.03 0.00 51 1009.5
20260503225015 12 0 0.0 0.0 0.00 0.03 0.00 52 1009.3
20260503224531 12 0 0.0 0.0 0.00 0.03 0.00 53 1009.4
20260503224018 12 0 0.0 0.0 0.00 0.03 0.00 51 1009.6
20260503223516 12 0 0.0 0.0 0.00 0.03 0.00 51 1009.7
20260503223035 12 0 0.0 0.0 0.00 0.03 0.00 51 1009.5
20260503222516 12 0 0.0 0.0 0.00 0.03 0.00 51 1009.6
20260503222015 12 0 0.0 0.0 0.00 0.03 0.00 50 1009.6
20260503221533 12 0 0.0 0.0 0.00 0.03 0.00 51 1009.7
20260503221016 12 0 0.0 0.0 0.00 0.03 0.00 53 1009.6
20260503220515 12 0 0.0 0.0 0.00 0.03 0.00 58 1009.6
20260503220037 12 0 0.0 0.0 0.00 0.03 0.00 52 1009.6
20260503215515 12 0 0.0 0.0 0.00 0.03 0.00 53 1009.6
20260503215016 12 0 0.0 0.0 0.00 0.03 0.00 51 1009.6
20260503214540 12 0 0.0 0.0 0.00 0.03 0.00 49 1009.5
20260503214015 12 0 0.0 0.0 0.00 0.03 0.00 50 1009.5
20260503213516 12 0 0.0 0.0 0.00 0.03 0.00 52 1009.6
20260503213032 12 0 0.0 0.0 0.00 0.03 0.00 51 1009.5
20260503212515 12 0 0.0 0.0 0.00 0.03 0.00 49 1009.5
20260503212016 12 0 0.0 0.0 0.00 0.03 0.00 48 1009.6
20260503211532 12 0 0.0 0.0 0.00 0.03 0.00 48 1009.6
20260503211018 12 0 0.0 0.0 0.00 0.03 0.00 47 1009.6
20260503210515 12 0 0.0 0.0 0.00 0.03 0.00 51 1009.6
20260503210033 12 0 0.0 0.0 0.00 0.03 0.00 48 1009.5
20260503205515 12 0 0.0 0.0 0.00 0.03 0.00 50 1009.6
20260503205016 12 0 0.0 0.0 0.00 0.03 0.00 51 1009.6
20260503204534 11 0 0.0 0.0 0.00 0.03 0.00 48 1009.5
20260503204015 11 0 0.0 0.0 0.00 0.03 0.00 48 1009.7
20260503203521 11 0 0.0 0.0 0.00 0.03 0.00 50 1009.8
20260503203038 11 0 0.0 0.0 0.00 0.03 0.00 48 1009.8